| time (UTC) | temp F | wind direction | speed knots | gust knots | rain 1hr in | rain 24hr in | rain mn in | humidity % | barometer mb |
| 20260508031553 | 51 | 189 | 0.0 | 0.0 | 0.00 | 0.00 | 0.00 | 91 | 1014.3 |
| 20260508030051 | 51 | 0 | 0.0 | 0.0 | 0.00 | 0.00 | 0.00 | 91 | 1014.2 |
| 20260508024554 | 51 | 0 | 0.0 | 0.0 | 0.00 | 0.00 | 0.00 | 91 | 1014.3 |
| 20260508023048 | 51 | 0 | 0.0 | 0.0 | 0.00 | 0.00 | 0.00 | 91 | 1014.2 |
| 20260508021544 | 51 | 0 | 0.0 | 0.9 | 0.00 | 0.00 | 0.00 | 90 | 1014.3 |
| 20260508020048 | 52 | 0 | 0.0 | 2.6 | 0.00 | 0.00 | 0.00 | 90 | 1014.3 |
| 20260508014550 | 52 | 217 | 0.9 | 2.6 | 0.00 | 0.00 | 0.00 | 90 | 1014.1 |
| 20260508013056 | 52 | 248 | 0.0 | 0.0 | 0.00 | 0.00 | 0.00 | 90 | 1014.3 |
| 20260508011549 | 52 | 0 | 0.0 | 0.0 | 0.00 | 0.00 | 0.00 | 90 | 1014.3 |
| 20260508010053 | 52 | 0 | 0.0 | 0.0 | 0.00 | 0.00 | 0.00 | 89 | 1014.3 |
| 20260508004546 | 52 | 0 | 0.0 | 0.0 | 0.00 | 0.00 | 0.00 | 88 | 1014.4 |
| 20260508003045 | 52 | 0 | 0.0 | 0.0 | 0.00 | 0.00 | 0.00 | 87 | 1014.3 |
| 20260508001549 | 53 | 0 | 0.0 | 0.0 | 0.00 | 0.00 | 0.00 | 87 | 1014.3 |
| 20260508000048 | 54 | 0 | 0.0 | 0.0 | 0.00 | 0.00 | 0.00 | 85 | 1014.3 |
| 20260507234551 | 53 | 0 | 0.0 | 0.0 | 0.00 | 0.04 | 0.00 | 87 | 1014.5 |
| 20260507233047 | 54 | 0 | 0.0 | 0.0 | 0.00 | 0.04 | 0.00 | 85 | 1014.7 |
| 20260507231542 | 54 | 0 | 0.0 | 0.0 | 0.00 | 0.04 | 0.00 | 86 | 1014.8 |
| 20260507230046 | 55 | 0 | 0.0 | 0.0 | 0.00 | 0.04 | 0.00 | 83 | 1014.6 |
| 20260507224549 | 56 | 0 | 0.0 | 0.0 | 0.00 | 0.06 | 0.00 | 81 | 1014.6 |
| 20260507223050 | 56 | 0 | 0.0 | 0.0 | 0.00 | 0.06 | 0.00 | 82 | 1014.6 |
| 20260507221545 | 56 | 0 | 0.0 | 0.0 | 0.00 | 0.06 | 0.00 | 82 | 1014.5 |
| 20260507220049 | 56 | 0 | 0.0 | 0.0 | 0.00 | 0.06 | 0.00 | 81 | 1014.4 |
| 20260507214550 | 56 | 344 | 0.0 | 3.5 | 0.00 | 0.07 | 0.06 | 81 | 1014.2 |
| 20260507213050 | 57 | 0 | 0.0 | 0.0 | 0.00 | 0.07 | 0.06 | 79 | 1014.1 |
| 20260507211547 | 58 | 0 | 0.9 | 4.3 | 0.00 | 0.07 | 0.06 | 77 | 1014.0 |
| 20260507210049 | 58 | 156 | 0.9 | 3.5 | 0.00 | 0.07 | 0.06 | 77 | 1013.9 |
| 20260507204552 | 59 | 9 | 0.9 | 4.3 | 0.00 | 0.07 | 0.06 | 75 | 1013.9 |
| 20260507203044 | 59 | 119 | 2.6 | 7.0 | 0.00 | 0.07 | 0.06 | 76 | 1013.9 |
| 20260507201550 | 59 | 176 | 1.7 | 10.4 | 0.00 | 0.07 | 0.06 | 76 | 1013.9 |
| 20260507200052 | 59 | 139 | 1.7 | 4.3 | 0.00 | 0.07 | 0.06 | 76 | 1013.6 |
| 20260507194550 | 59 | 0 | 0.0 | 2.6 | 0.00 | 0.07 | 0.06 | 76 | 1013.5 |
| 20260507193047 | 59 | 207 | 1.7 | 4.3 | 0.00 | 0.07 | 0.06 | 75 | 1013.3 |
| 20260507191608 | 60 | 294 | 0.9 | 3.5 | 0.00 | 0.07 | 0.06 | 72 | 1013.0 |
| 20260507190045 | 61 | 350 | 0.0 | 6.1 | 0.00 | 0.07 | 0.06 | 66 | 1012.7 |
| 20260507184557 | 62 | 133 | 4.3 | 13.0 | 0.00 | 0.07 | 0.06 | 66 | 1012.6 |
| 20260507183047 | 62 | 142 | 6.1 | 12.2 | 0.00 | 0.07 | 0.06 | 66 | 1012.6 |
| 20260507181546 | 62 | 142 | 6.1 | 12.2 | 0.00 | 0.07 | 0.06 | 65 | 1012.4 |
| 20260507180046 | 63 | 88 | 6.1 | 13.0 | 0.00 | 0.07 | 0.06 | 65 | 1012.4 |
| 20260507174548 | 64 | 160 | 6.1 | 13.9 | 0.00 | 0.16 | 0.06 | 63 | 1012.2 |
| 20260507173053 | 64 | 134 | 7.8 | 13.9 | 0.00 | 0.16 | 0.06 | 60 | 1012.2 |
| 20260507171549 | 65 | 177 | 7.0 | 13.9 | 0.00 | 0.16 | 0.06 | 60 | 1012.2 |
| 20260507170050 | 65 | 97 | 6.1 | 13.9 | 0.00 | 0.16 | 0.06 | 61 | 1012.1 |
| 20260507164559 | 66 | 144 | 7.8 | 12.2 | 0.00 | 0.22 | 0.06 | 58 | 1012.1 |
| 20260507163044 | 67 | 122 | 5.2 | 12.2 | 0.00 | 0.22 | 0.06 | 59 | 1012.1 |
| 20260507161549 | 66 | 126 | 6.1 | 13.0 | 0.00 | 0.22 | 0.06 | 65 | 1012.0 |
| 20260507160052 | 65 | 133 | 7.8 | 13.0 | 0.00 | 0.22 | 0.06 | 65 | 1012.0 |
| 20260507154547 | 67 | 105 | 7.0 | 12.2 | 0.00 | 0.39 | 0.06 | 65 | 1012.0 |
| 20260507153050 | 67 | 154 | 6.1 | 10.4 | 0.00 | 0.39 | 0.06 | 61 | 1011.9 |
| 20260507151546 | 68 | 165 | 4.3 | 7.8 | 0.00 | 0.39 | 0.06 | 61 | 1011.9 |
| 20260507150048 | 69 | 109 | 2.6 | 7.0 | 0.00 | 0.39 | 0.06 | 56 | 1011.9 |
| 20260507144547 | 68 | 82 | 1.7 | 7.0 | 0.00 | 0.39 | 0.06 | 57 | 1011.9 |
| 20260507143100 | 69 | 135 | 4.3 | 9.6 | 0.00 | 0.39 | 0.06 | 55 | 1012.0 |
| 20260507141607 | 69 | 0 | 2.6 | 5.2 | 0.00 | 0.39 | 0.06 | 56 | 1012.1 |
| 20260507140053 | 69 | 311 | 1.7 | 7.0 | 0.00 | 0.39 | 0.06 | 57 | 1012.3 |
| 20260507134555 | 69 | 55 | 0.9 | 8.7 | 0.00 | 0.39 | 0.06 | 60 | 1012.5 |
| 20260507133046 | 68 | 0 | 0.9 | 4.3 | 0.00 | 0.39 | 0.06 | 56 | 1012.8 |
| 20260507131557 | 67 | 69 | 2.6 | 7.8 | 0.00 | 0.39 | 0.06 | 58 | 1012.8 |
| 20260507130047 | 66 | 56 | 3.5 | 7.8 | 0.00 | 0.39 | 0.06 | 63 | 1012.9 |
| 20260507124542 | 65 | 313 | 4.3 | 8.7 | 0.00 | 0.39 | 0.06 | 61 | 1013.0 |
| 20260507123050 | 65 | 98 | 3.5 | 10.4 | 0.00 | 0.39 | 0.06 | 62 | 1013.1 |
| 20260507121545 | 66 | 340 | 1.7 | 5.2 | 0.00 | 0.39 | 0.06 | 61 | 1013.3 |
| 20260507120045 | 64 | 27 | 1.7 | 7.8 | 0.00 | 0.39 | 0.06 | 64 | 1013.5 |
| 20260507114551 | 64 | 275 | 4.3 | 7.8 | 0.00 | 0.39 | 0.06 | 65 | 1013.6 |
| 20260507113048 | 64 | 185 | 0.0 | 5.2 | 0.00 | 0.39 | 0.06 | 64 | 1013.7 |
| 20260507111547 | 63 | 53 | 2.6 | 9.6 | 0.00 | 0.39 | 0.06 | 67 | 1013.8 |
| 20260507110050 | 63 | 110 | 0.9 | 7.0 | 0.00 | 0.39 | 0.06 | 68 | 1014.1 |
| 20260507104557 | 62 | 325 | 2.6 | 9.6 | 0.00 | 0.39 | 0.06 | 70 | 1014.1 |
| 20260507103043 | 61 | 313 | 6.1 | 7.8 | 0.00 | 0.39 | 0.06 | 70 | 1014.2 |
| 20260507101550 | 62 | 19 | 2.6 | 8.7 | 0.00 | 0.39 | 0.06 | 70 | 1014.2 |
| 20260507100054 | 61 | 82 | 3.5 | 7.0 | 0.00 | 0.39 | 0.06 | 74 | 1014.2 |
| 20260507094549 | 61 | 5 | 0.0 | 3.5 | 0.00 | 0.39 | 0.06 | 74 | 1014.3 |
| 20260507093044 | 59 | 322 | 0.9 | 4.3 | 0.00 | 0.39 | 0.06 | 78 | 1014.3 |
| 20260507091548 | 58 | 295 | 0.9 | 2.6 | 0.00 | 0.39 | 0.06 | 81 | 1014.4 |
| 20260507090057 | 57 | 137 | 0.0 | 3.5 | 0.00 | 0.39 | 0.06 | 84 | 1014.2 |
| 20260507084552 | 57 | 233 | 1.7 | 4.3 | 0.00 | 0.39 | 0.06 | 85 | 1014.3 |
| 20260507083046 | 56 | 293 | 0.0 | 3.5 | 0.00 | 0.39 | 0.06 | 87 | 1014.1 |
| 20260507081553 | 56 | 269 | 1.7 | 3.5 | 0.00 | 0.39 | 0.06 | 87 | 1014.1 |
| 20260507080041 | 55 | 0 | 0.0 | 0.0 | 0.00 | 0.39 | 0.06 | 89 | 1014.0 |
| 20260507074545 | 55 | 0 | 0.0 | 0.0 | 0.00 | 0.39 | 0.06 | 90 | 1014.0 |
| 20260507073044 | 54 | 0 | 0.0 | 0.0 | 0.00 | 0.39 | 0.06 | 91 | 1014.0 |
| 20260507071542 | 54 | 0 | 0.0 | 2.6 | 0.00 | 0.39 | 0.06 | 92 | 1013.9 |
| 20260507070047 | 53 | 9 | 2.6 | 4.3 | 0.00 | 0.39 | 0.06 | 92 | 1013.8 |
| 20260507064613 | 53 | 5 | 1.7 | 3.5 | 0.00 | 0.39 | 0.06 | 92 | 1013.7 |
| 20260507063044 | 53 | 15 | 1.7 | 4.3 | 0.00 | 0.39 | 0.06 | 92 | 1013.6 |
| 20260507061547 | 53 | 24 | 1.7 | 3.5 | 0.00 | 0.39 | 0.06 | 93 | 1013.6 |
| 20260507060108 | 54 | 348 | 0.9 | 3.5 | 0.00 | 0.39 | 0.06 | 93 | 1013.4 |
| 20260507054554 | 54 | 0 | 0.0 | 0.0 | 0.00 | 0.40 | 0.06 | 93 | 1013.3 |
| 20260507053044 | 53 | 0 | 0.0 | 0.0 | 0.00 | 0.40 | 0.06 | 92 | 1013.0 |
| 20260507051559 | 53 | 0 | 0.0 | 0.0 | 0.00 | 0.40 | 0.06 | 92 | 1012.5 |
| 20260507050050 | 53 | 0 | 0.0 | 0.0 | 0.00 | 0.40 | 0.06 | 92 | 1012.3 |
| 20260507044543 | 53 | 0 | 0.0 | 0.0 | 0.00 | 0.40 | 0.06 | 91 | 1012.3 |
| 20260507043045 | 53 | 0 | 0.0 | 0.9 | 0.00 | 0.40 | 0.06 | 92 | 1012.1 |
| 20260507041544 | 53 | 326 | 0.0 | 2.6 | 0.00 | 0.40 | 0.06 | 91 | 1012.0 |
| 20260507040049 | 53 | 300 | 0.9 | 2.6 | 0.00 | 0.40 | 0.06 | 90 | 1011.9 |
| 20260507034549 | 53 | 263 | 2.6 | 5.2 | 0.00 | 0.40 | 0.06 | 90 | 1012.0 |
| 20260507033051 | 54 | 280 | 2.6 | 4.3 | 0.00 | 0.40 | 0.06 | 90 | 1011.9 |